Temperature
12 12 12 12 12 12 11 11 11 11 11 11 11 11 11 11 11 11 11 11 11 11 10 10 10 10 10 10 10 10 10 10 10 10 10 10 10 11 11 11 11 11 11
12 12 12 12 12 11 11 11 11 11 11 11 11 11 11 11 11 11 10 10 10 9 9 9 9 9 9 9 9 9 9 9 9 9 10 10 10 10 10 10 11 11 11
12 12 12 12 12 11 11 11 11 11 11 11 11 11 10 10 10 10 10 9 9 8 8 8 8 9 9 9 9 8 9 9 9 9 9 9 9 9 10 10 10 10 10
12 12 12 12 12 11 11 11 11 11 11 11 10 10 10 10 9 9 9 8 8 8 8 8 8 8 8 8 8 8 8 8 9 9 9 9 9 9 9 8 8 8 8
12 12 12 12 11 11 11 11 11 10 10 10 10 9 9 9 9 8 8 7 7 8 8 8 8 8 8 8 8 8 8 8 8 8 8 8 7 7 7 7 6 6 6
12 12 12 11 11 11 10 10 10 9 9 9 9 9 9 9 8 8 7 7 7 7 7 7 7 7 7 7 7 7 7 7 7 6 6 6 6 5 5 5 5 5 5
11 11 11 11 11 10 10 9 9 8 8 8 8 8 8 8 8 7 7 7 7 7 6 6 6 6 6 6 6 6 6 5 5 4 3 3 3 3 3 3 3 3 4
11 11 11 11 10 10 9 8 8 7 7 6 6 6 6 7 6 6 6 6 5 5 5 5 5 5 5 4 4 4 4 4 3 1 0 0 1 1 1 1 2 2 2
11 11 10 10 10 9 8 7 7 6 5 5 4 4 3 2 3 4 4 4 4 4 4 4 4 4 3 3 3 3 2 2 1 -1 -1 -1 -1 -0 0 0 1 1 2
10 10 10 9 9 8 7 6 6 5 5 4 3 3 2 0 -0 -0 2 3 3 3 3 3 3 3 2 2 1 0 0 -1 -2 -2 -2 -2 -2 -1 -1 -0 -0 0 1
10 10 9 9 8 7 6 5 5 4 4 3 3 2 1 0 -1 -3 -3 -0 1 1 2 2 2 2 1 0 -1 -1 -3 -3 -3 -3 -3 -3 -3 -2 -2 -1 -1 -1 -0
9 9 8 8 7 6 5 5 4 4 3 3 2 1 0 -1 -2 -4 -4 -4 -3 -2 -1 -0 0 0 -0 -1 -2 -3 -4 -4 -5 -5 -4 -4 -4 -3 -3 -3 -2 -2 -2
9 8 7 7 6 5 4 4 3 3 3 2 1 0 -1 -2 -3 -3 -4 -5 -5 -4 -4 -4 -3 -3 -3 -4 -4 -4 -5 -5 -6 -6 -5 -5 -5 -4 -4 -4 -4 -3 -3
8 7 6 6 5 4 4 3 3 2 2 1 1 -0 -1 -2 -3 -4 -5 -6 -7 -6 -6 -6 -5 -5 -6 -7 -7 -7 -7 -7 -7 -6 -6 -6 -6 -6 -5 -5 -5 -5 -4
7 6 6 5 4 4 3 3 2 2 1 1 0 -1 -1 -3 -4 -4 -5 -6 -7 -8 -7 -7 -7 -7 -8 -8 -8 -8 -8 -8 -8 -7 -7 -7 -7 -6 -6 -6 -6 -5 -5
6 5 5 4 3 3 2 2 2 1 1 0 -0 -1 -2 -3 -4 -5 -6 -6 -7 -8 -8 -8 -8 -7 -8 -8 -8 -8 -8 -8 -8 -8 -8 -8 -7 -7 -7 -7 -6 -6 -6
5 5 4 3 3 2 2 1 1 1 0 -0 -1 -2 -3 -4 -5 -6 -6 -7 -7 -8 -9 -8 -8 -8 -8 -8 -8 -8 -9 -9 -9 -9 -8 -8 -8 -8 -7 -7 -7 -6 -6
5 4 3 3 2 2 1 1 1 0 -0 -1 -2 -3 -4 -5 -6 -6 -7 -7 -8 -8 -9 -9 -9 -9 -8 -8 -9 -9 -9 -9 -9 -9 -9 -9 -8 -8 -8 -8 -7 -7 -7
4 3 2 2 2 1 1 0 -0 -0 -1 -2 -3 -4 -5 -6 -6 -7 -7 -8 -9 -9 -9 -9 -9 -9 -9 -9 -9 -9 -9 -9 -10 -10 -9 -9 -9 -9 -8 -8 -8 -7 -7
3 2 2 2 1 1 0 -0 -1 -1 -2 -3 -4 -5 -6 -6 -7 -8 -8 -9 -9 -9 -9 -9 -9 -9 -9 -9 -9 -10 -10 -10 -10 -10 -10 -9 -9 -9 -9 -9 -8 -8 -8
2 2 1 1 1 0 -0 -1 -2 -3 -3 -4 -5 -6 -6 -7 -8 -9 -9 -9 -9 -9 -9 -9 -9 -9 -9 -10 -10 -10 -10 -10 -10 -10 -10 -10 -10 -10 -9 -9 -9 -8 -9
2 1 1 0 0 -0 -1 -2 -3 -4 -5 -5 -6 -6 -7 -7 -8 -9 -9 -9 -9 -9 -9 -9 -9 -10 -10 -10 -10 -10 -10 -10 -10 -10 -10 -10 -10 -10 -9 -9 -8 -9 -8
1 1 0 -0 -1 -1 -2 -2 -3 -5 -6 -6 -7 -7 -8 -8 -8 -9 -9 -9 -9 -9 -9 -10 -10 -10 -10 -10 -10 -10 -10 -10 -11 -10 -11 -10 -10 -10 -9 -8 -8 -8 -8
1 0 -0 -1 -1 -2 -2 -3 -4 -6 -6 -7 -7 -8 -8 -8 -9 -9 -9 -9 -9 -9 -10 -10 -10 -10 -10 -10 -10 -10 -11 -11 -11 -10 -11 -11 -10 -9 -9 -7 -7 -7 -8
0 -0 -1 -1 -2 -2 -3 -4 -5 -6 -7 -7 -8 -8 -9 -9 -10 -9 -9 -9 -10 -9 -10 -10 -10 -10 -10 -10 -10 -11 -11 -12 -12 -11 -9 -11 -9 -10 -9 -7 -6 -7 -7
-1 -1 -1 -2 -3 -3 -4 -5 -6 -8 -8 -8 -8 -9 -9 -10 -10 -9 -9 -10 -10 -10 -10 -10 -10 -9 -8 -8 -9 -10 -11 -12 -12 -12 -9 -11 -11 -11 -10 -8 -6 -5 -5
Wind_Speed
3 3 3 4 5 6 6 5 5 6 6 7 8 7 7 9 9 9 9 13 17 17 17 17 17 17 17 16 16 17 17 17 16 16 15 15 14 14 14 14 14 15 15
5 4 4 5 6 7 8 7 6 5 4 4 5 6 6 8 7 8 10 13 17 19 18 18 18 18 17 16 16 16 17 18 17 17 16 16 16 16 16 16 16 16 16
9 7 5 5 6 8 9 8 6 6 5 6 6 5 5 6 6 7 9 12 14 17 18 19 19 18 17 17 17 17 17 18 18 18 18 17 17 18 18 18 18 18 19
11 9 6 5 8 8 7 5 5 5 6 6 6 5 4 4 4 6 8 10 11 13 15 19 20 19 18 18 18 19 19 19 19 19 19 19 19 19 19 20 20 21 21
13 11 7 6 9 7 5 5 6 5 5 7 6 5 4 4 2 4 5 7 8 10 13 17 20 19 18 19 19 20 21 21 21 20 20 20 20 20 21 21 21 22 23
14 12 8 8 8 6 6 5 6 6 5 6 6 6 4 3 2 3 3 3 5 9 14 16 17 17 18 19 21 22 22 22 22 21 21 21 22 22 23 23 23 24 24
13 11 8 7 7 8 7 6 4 6 6 6 5 6 4 3 3 1 2 1 3 9 15 16 17 16 14 19 21 22 22 22 22 22 23 23 24 25 25 25 26 26 26
12 11 9 7 6 7 8 8 6 3 5 6 4 4 5 6 5 4 4 3 5 8 10 16 17 15 15 16 18 22 21 22 23 24 24 25 26 27 27 27 28 28 28
13 13 11 8 6 7 6 6 6 5 4 4 5 4 3 4 5 5 5 4 5 5 6 10 13 16 18 17 17 18 21 23 24 26 27 28 28 29 29 29 29 30 30
12 14 13 11 7 6 6 6 5 4 3 3 3 2 1 3 3 6 5 4 5 8 8 9 11 16 17 16 17 20 22 24 26 28 29 30 30 30 31 31 31 31 31
10 12 12 10 7 5 6 6 5 4 3 2 1 2 2 2 2 3 7 6 7 5 6 9 8 10 14 15 14 18 24 27 29 30 31 31 32 32 33 33 33 33 33
6 9 11 9 7 5 5 4 4 4 2 2 1 0 1 2 2 4 6 12 12 7 9 10 8 6 12 14 16 24 28 30 30 31 32 33 34 34 35 35 35 35 34
5 6 6 5 5 5 5 4 3 3 2 1 1 1 2 3 3 4 7 11 12 8 5 4 5 7 13 13 16 27 29 30 31 33 35 36 36 36 36 36 36 36 35
6 5 6 6 6 5 4 4 2 2 1 2 3 3 3 4 4 4 5 9 14 7 5 7 5 6 8 13 21 28 23 31 34 36 37 37 37 36 36 36 36 36 36
6 6 6 5 4 4 4 3 2 3 3 3 4 5 5 5 5 6 6 6 7 14 17 7 4 4 8 14 20 21 21 30 35 36 37 37 37 37 37 37 37 36 36
6 6 6 4 4 3 3 3 3 3 4 4 4 6 6 6 6 6 7 7 8 12 17 10 12 11 10 15 24 22 22 32 33 34 36 37 37 38 38 38 37 36 36
7 6 5 4 3 3 3 3 4 4 5 6 6 7 8 8 7 7 7 8 9 10 17 19 14 12 13 14 15 15 19 17 20 31 35 37 38 37 37 37 36 36 35
6 5 4 4 3 3 4 4 5 6 6 7 8 7 8 8 8 8 8 9 10 10 14 21 19 15 15 14 15 14 15 16 13 29 34 35 35 36 36 36 36 36 35
6 5 4 4 3 4 4 5 6 7 7 7 7 8 8 9 10 9 10 10 10 12 11 16 19 16 14 13 14 15 15 13 16 22 28 30 32 34 35 36 36 36 36
6 4 3 3 3 4 5 6 6 7 6 6 7 7 8 9 11 11 11 10 10 12 12 15 16 16 15 12 12 15 17 12 14 16 22 24 29 32 34 35 35 35 35
5 3 3 3 4 4 5 7 6 6 6 6 7 8 9 14 17 15 14 12 13 13 14 15 16 16 16 15 15 15 19 18 15 12 14 14 15 16 18 26 30 32 34
4 3 3 4 5 5 11 15 12 6 5 7 9 9 10 13 17 23 26 25 23 19 17 15 16 17 19 17 16 17 18 19 18 8 11 18 15 17 16 14 26 34 35
3 3 3 4 6 8 14 16 16 9 6 8 10 10 12 13 18 13 20 25 21 24 24 18 17 18 19 18 19 21 18 19 20 17 17 20 16 18 16 19 32 34 35
2 2 4 5 6 8 14 16 18 9 7 9 10 11 12 12 14 19 17 15 12 12 18 15 13 16 17 17 17 18 18 19 18 14 13 18 19 18 18 17 29 33 33
2 3 4 5 6 9 14 17 18 7 7 9 10 10 12 12 22 27 19 16 15 13 19 23 24 24 28 28 22 15 14 15 18 17 10 9 12 17 18 17 18 26 28
2 4 5 5 7 8 14 18 19 7 8 9 8 9 16 20 26 28 17 14 16 17 16 16 17 20 17 18 22 13 12 14 15 11 5 6 11 13 10 8 9 14 18
Wind_Direction
133 112 89 75 66 66 61 53 50 45 35 26 22 22 19 10 12 23 29 44 48 44 41 34 26 20 16 13 13 14 12 8 4 360 354 349 344 340 336 333 326 317 309
133 118 97 77 65 65 63 60 55 44 30 15 10 14 19 11 19 38 47 52 51 44 39 31 22 15 11 7 5 4 2 358 353 348 343 338 333 327 322 317 314 313 311
128 115 98 79 66 69 68 59 51 43 28 12 1 2 19 14 29 45 56 60 56 44 36 29 19 11 6 0 356 351 347 345 341 335 330 325 321 316 311 307 303 300 299
116 105 95 84 75 69 64 61 37 35 21 5 346 344 8 7 34 52 57 64 62 49 34 25 16 7 0 353 348 343 338 334 331 327 323 318 314 309 305 301 298 295 292
107 101 93 86 79 67 51 55 46 37 19 356 334 335 359 358 24 51 55 61 59 49 35 20 10 0 354 347 342 337 331 328 324 320 318 315 312 308 305 301 298 294 290
103 100 91 81 76 68 52 47 52 40 25 349 332 332 338 348 10 55 47 51 46 37 26 12 0 348 344 340 336 330 326 323 319 316 313 311 310 307 304 300 297 293 290
99 98 94 80 72 72 60 45 45 34 18 360 0 340 339 353 350 52 26 3 19 20 13 359 344 330 326 329 327 323 322 319 316 312 310 308 306 304 300 297 294 291 288
99 97 93 88 78 78 62 48 45 45 21 22 28 7 348 338 341 345 346 356 12 10 357 338 323 315 315 312 311 318 316 314 312 309 307 305 303 299 296 294 291 288 285
97 97 93 89 78 77 72 60 52 61 32 14 39 56 19 314 310 314 320 341 356 350 328 315 310 310 308 305 304 307 311 311 308 307 305 303 300 297 295 292 289 286 284
95 92 90 86 80 76 73 63 62 61 65 27 4 28 225 239 291 310 301 306 321 317 303 311 306 299 297 297 299 307 308 306 307 305 303 301 298 296 294 291 289 287 284
87 87 87 84 79 76 76 68 63 60 69 74 18 340 331 312 255 275 294 304 304 284 292 295 292 290 291 292 293 298 307 309 306 303 302 300 298 296 294 292 289 288 285
82 81 84 81 79 76 72 68 66 62 59 58 37 278 253 287 290 279 288 306 307 296 286 282 279 280 292 296 301 310 309 306 304 302 301 299 297 295 294 292 291 288 286
93 82 83 79 75 75 74 64 54 37 37 22 308 257 238 240 246 264 289 304 304 298 272 255 256 281 294 301 307 307 305 304 304 302 300 298 296 295 294 293 290 288 286
107 99 90 83 76 69 61 48 34 356 356 312 283 263 254 254 250 258 274 303 313 303 263 271 269 259 276 291 296 301 300 300 300 299 298 297 296 295 294 292 289 287 285
106 96 90 81 68 56 42 26 356 328 314 283 273 265 256 256 254 257 259 268 291 306 310 293 276 265 277 286 290 294 289 294 297 296 297 297 296 294 292 291 289 286 284
98 98 87 75 56 37 18 1 328 313 305 288 270 266 265 262 261 260 259 260 260 280 293 294 300 297 289 296 298 297 290 294 295 295 294 294 294 293 292 290 288 286 283
100 95 87 71 46 22 358 343 320 308 302 295 291 283 277 276 272 267 264 264 265 270 286 296 297 298 293 292 295 287 285 282 285 291 294 294 293 292 291 290 288 287 284
97 94 85 65 34 5 340 326 313 310 299 296 294 292 288 291 280 277 274 272 273 271 282 295 301 302 296 294 294 291 298 296 289 293 294 294 294 293 292 290 288 286 284
95 84 74 52 13 340 322 308 295 292 290 289 291 291 290 289 288 285 280 280 280 285 284 292 297 299 298 298 299 299 295 290 292 295 295 295 293 292 291 290 289 288 286
95 79 61 32 352 323 306 294 289 288 289 292 291 288 287 286 286 287 291 284 291 295 292 292 295 300 302 301 302 307 306 298 296 296 293 292 292 293 291 291 289 287 285
88 73 46 10 344 319 305 306 299 295 295 295 293 287 287 300 305 306 308 308 305 300 300 302 304 306 307 311 310 308 305 305 297 288 291 292 291 288 287 286 285 284 282
72 48 23 354 336 328 322 326 326 306 292 294 298 295 294 297 302 312 311 307 305 306 308 307 308 306 306 306 306 306 306 306 305 299 297 300 295 291 288 283 284 285 283
53 21 356 340 323 316 328 329 325 324 300 293 293 297 304 307 312 298 298 304 305 305 307 305 302 300 301 304 305 305 304 302 300 303 305 299 298 294 291 287 289 287 286
35 358 332 325 319 321 332 328 324 326 296 287 287 289 293 295 301 307 307 309 303 300 300 301 293 294 298 301 302 304 303 301 297 295 293 295 298 296 296 290 289 285 285
8 335 321 324 322 319 328 325 325 305 295 292 291 292 302 302 307 314 318 314 311 308 310 307 305 306 307 308 309 308 307 308 305 304 295 286 292 302 297 288 284 287 288
345 333 326 322 314 307 319 325 325 303 303 302 298 293 309 314 314 320 321 317 316 313 313 315 313 309 304 303 307 306 303 302 304 305 291 294 298 313 306 280 279 291 293
Height
1517 1518 1518 1518 1518 1517 1516 1515 1514 1513 1512 1511 1509 1507 1505 1503 1502 1500 1499 1497 1496 1495 1493 1492 1491 1490 1489 1488 1487 1485 1484 1483 1482 1480 1480 1479 1478 1478 1477 1477 1476 1476 1475
1516 1517 1517 1517 1516 1515 1514 1513 1512 1510 1509 1508 1506 1504 1502 1500 1498 1496 1495 1493 1492 1491 1490 1488 1487 1486 1485 1484 1482 1481 1479 1478 1477 1476 1474 1473 1473 1472 1471 1470 1470 1469 1469
1515 1515 1515 1515 1514 1513 1512 1511 1509 1508 1506 1505 1503 1501 1499 1496 1494 1492 1491 1490 1489 1488 1486 1485 1484 1483 1481 1479 1478 1476 1474 1472 1471 1469 1468 1467 1466 1465 1464 1463 1462 1461 1461
1513 1513 1513 1513 1512 1511 1509 1508 1506 1505 1503 1501 1500 1498 1495 1493 1491 1489 1488 1487 1486 1485 1484 1482 1480 1478 1476 1474 1472 1470 1468 1466 1464 1462 1461 1459 1457 1456 1455 1454 1453 1452 1452
1510 1511 1511 1510 1510 1509 1507 1505 1503 1501 1499 1497 1496 1494 1492 1489 1487 1486 1485 1484 1483 1482 1480 1478 1476 1474 1471 1468 1466 1463 1461 1458 1456 1455 1453 1451 1449 1447 1446 1445 1444 1443 1442
1508 1509 1509 1508 1508 1506 1505 1503 1500 1498 1496 1494 1492 1490 1488 1486 1485 1483 1482 1481 1480 1479 1477 1475 1472 1469 1466 1463 1459 1457 1454 1451 1449 1447 1445 1443 1440 1438 1437 1436 1434 1434 1433
1506 1507 1507 1507 1506 1504 1502 1500 1498 1496 1493 1491 1488 1486 1485 1484 1482 1481 1480 1479 1477 1475 1473 1470 1467 1463 1459 1456 1453 1450 1446 1444 1441 1439 1437 1434 1432 1430 1428 1426 1425 1424 1423
1504 1505 1505 1504 1503 1502 1500 1498 1496 1493 1491 1488 1486 1482 1481 1480 1479 1479 1477 1475 1472 1469 1467 1464 1461 1457 1453 1449 1445 1442 1439 1435 1433 1431 1428 1426 1423 1421 1419 1417 1416 1414 1413
1503 1503 1503 1502 1501 1499 1497 1495 1493 1492 1490 1488 1485 1484 1482 1478 1473 1469 1469 1467 1464 1462 1459 1456 1453 1450 1446 1442 1438 1434 1431 1427 1424 1422 1420 1417 1414 1412 1410 1408 1406 1404 1403
1501 1501 1501 1500 1499 1497 1495 1493 1492 1490 1488 1486 1484 1483 1482 1478 1473 1464 1460 1460 1457 1454 1451 1449 1446 1443 1439 1435 1430 1426 1423 1419 1416 1413 1410 1408 1405 1402 1400 1397 1395 1393 1392
1498 1499 1499 1498 1496 1495 1493 1492 1490 1488 1486 1484 1482 1479 1477 1475 1472 1466 1455 1449 1447 1445 1443 1441 1439 1435 1431 1427 1423 1418 1415 1411 1407 1404 1401 1398 1395 1392 1389 1386 1384 1381 1379
1496 1497 1496 1495 1494 1493 1492 1490 1489 1487 1484 1482 1479 1476 1474 1471 1468 1463 1454 1444 1438 1434 1433 1432 1431 1428 1424 1419 1415 1411 1406 1402 1398 1394 1391 1387 1384 1380 1377 1374 1371 1369 1367
1494 1494 1494 1493 1492 1491 1490 1488 1487 1484 1482 1479 1477 1474 1471 1468 1465 1460 1453 1442 1432 1425 1422 1421 1421 1419 1416 1411 1407 1402 1397 1393 1388 1384 1380 1376 1373 1369 1365 1362 1359 1356 1354
1492 1492 1492 1491 1490 1489 1487 1486 1484 1481 1479 1476 1473 1470 1467 1464 1461 1456 1451 1443 1429 1419 1416 1414 1410 1408 1406 1402 1398 1393 1388 1384 1379 1374 1369 1365 1361 1357 1353 1349 1346 1343 1341
1490 1490 1489 1489 1488 1486 1485 1483 1481 1478 1476 1473 1469 1466 1463 1459 1456 1452 1448 1443 1436 1420 1406 1403 1402 1399 1397 1393 1389 1385 1380 1375 1370 1364 1359 1354 1349 1345 1341 1337 1334 1330 1328
1488 1488 1487 1486 1485 1484 1482 1480 1477 1475 1472 1468 1465 1461 1457 1453 1450 1446 1442 1438 1433 1424 1409 1398 1395 1391 1388 1385 1381 1376 1371 1365 1360 1354 1349 1343 1338 1333 1328 1324 1321 1317 1315
1485 1485 1485 1484 1483 1481 1479 1476 1474 1471 1467 1464 1460 1455 1451 1447 1443 1439 1434 1430 1425 1419 1407 1393 1390 1385 1380 1374 1369 1365 1360 1355 1348 1343 1338 1332 1327 1321 1316 1312 1308 1304 1301
1483 1483 1482 1481 1480 1478 1475 1472 1469 1466 1462 1458 1454 1449 1445 1440 1436 1431 1426 1421 1417 1412 1404 1392 1382 1377 1372 1367 1361 1355 1350 1345 1339 1333 1327 1321 1315 1310 1304 1300 1295 1292 1288
1481 1480 1480 1478 1476 1474 1471 1468 1464 1461 1457 1452 1448 1443 1438 1433 1428 1424 1419 1414 1409 1404 1398 1390 1378 1371 1365 1360 1353 1346 1341 1334 1328 1322 1316 1310 1304 1298 1293 1288 1283 1279 1275
1478 1478 1477 1475 1473 1470 1467 1463 1459 1455 1451 1447 1442 1437 1432 1427 1421 1416 1412 1407 1402 1396 1390 1382 1373 1366 1359 1353 1347 1338 1329 1323 1317 1312 1305 1299 1293 1287 1280 1274 1269 1264 1260
1476 1475 1473 1471 1469 1466 1462 1458 1454 1449 1445 1440 1436 1432 1426 1421 1417 1412 1408 1401 1395 1389 1382 1375 1367 1360 1352 1346 1340 1332 1323 1313 1306 1303 1294 1287 1281 1273 1266 1260 1255 1249 1245
1473 1472 1470 1468 1465 1461 1457 1453 1449 1444 1439 1434 1429 1425 1420 1415 1410 1406 1400 1395 1391 1384 1377 1370 1361 1354 1346 1340 1333 1326 1318 1308 1296 1293 1287 1276 1272 1262 1255 1249 1242 1237 1233
1470 1469 1466 1463 1460 1456 1452 1448 1444 1439 1434 1429 1424 1418 1413 1409 1404 1397 1391 1387 1383 1378 1373 1366 1356 1348 1341 1334 1328 1319 1312 1305 1295 1287 1280 1266 1261 1252 1245 1237 1232 1226 1221
1467 1465 1462 1459 1455 1452 1447 1443 1438 1433 1428 1424 1419 1413 1407 1401 1396 1391 1385 1379 1373 1368 1363 1357 1350 1343 1336 1329 1323 1316 1307 1297 1288 1281 1276 1263 1251 1243 1233 1225 1219 1214 1209
1464 1462 1458 1455 1451 1447 1442 1438 1433 1427 1422 1418 1413 1408 1402 1396 1390 1386 1379 1372 1364 1358 1353 1348 1343 1337 1330 1323 1317 1309 1300 1292 1280 1271 1267 1259 1245 1234 1222 1213 1208 1203 1198
1460 1458 1455 1451 1446 1442 1437 1433 1428 1422 1417 1411 1407 1402 1397 1391 1385 1380 1373 1365 1357 1350 1344 1338 1333 1327 1321 1315 1310 1304 1296 1288 1278 1266 1258 1253 1242 1234 1216 1202 1200 1194 1187